Terug naar catalogus

TITAN 3C TRANSTAGE DEB

ActiefLEO
NORAD 1671·DEBRIS·🇺🇸 United States

Gelanceerd Oct 15, 1965 vanaf Cape Canaveral Space Force Station

Loading…

Volgende Passages (komende 24 uur)

TLE

VersSource: Space-Track

Epoch: Sep 14, 2026, 08:30 UTC

1 01671U 65082AJ  26257.35462341  .00000361  00000-0  74436-4 0  9994
2 01671  32.1604 253.0557 0052179 303.8397  55.7287 14.54055047199386

Volg TITAN 3C TRANSTAGE DEB in realtime met AllMySat

Download on the App Store